Hourly Observations for September 14, 2018

Temp ( °F °C ) Dew Point ( °F °C ) Humidity (%) Winds ( mph kmh ) Pressure ( in mb ) Visibility ( mi km ) Precip ( " mm )
12:53 am 00:53 Cloudy with Light Snow 35 1.7 31 -0.6 85 85 N 14 22 30.24 1024 5 8.04672 0.01 0.254
1:35 am 01:35 Cloudy with Light Snow 34 1.1 30 -1.1 85 85 N 9 15 30.3 1026 2 3.218688 0.01 0.254
1:40 am 01:40 Cloudy with Light Snow 34 1.1 30 -1.1 85 85 N 8 13 30.3 1026 1.75 2.816352 0.01 0.254
1:53 am 01:53 Cloudy with Light Snow 33 0.6 30 -1.1 89 89 N 12 19 30.27 1025 1.5 2.414016 0.02 0.508
2:53 am 02:53 Cloudy with Light Snow 33 0.6 29 -1.7 85 85 N 14 22 30.27 1025 2.5 4.02336 0.05 1.27
2:59 am 02:59 Cloudy with Light Snow 32 0 29 -1.7 88 88 N 16 26 30.33 1027 3 4.828032 0.001 0.001
3:10 am 03:10 Cloudy with Light Snow 32 0 29 -1.7 88 88 N 13 20 30.33 1027 3 4.828032 0.001 0.001
3:20 am 03:20 Cloudy with Light Snow 32 0 29 -1.7 88 88 NNW 9 15 30.33 1027 2 3.218688 0.001 0.001
3:29 am 03:29 Cloudy with Light Snow 32 0 29 -1.7 88 88 NNW 12 19 30.33 1027 2 3.218688 0.01 0.254
3:53 am 03:53 Cloudy with Light Snow 32 0 29 -1.7 88 88 NNW 15 24 30.3 1026 2.5 4.02336 0.02 0.508
4:01 am 04:01 Cloudy with Light Snow 32 0 28 -2.2 85 85 N 14 22 30.33 1027 3 4.828032 0.001 0.001
4:53 am 04:53 Cloudy with Light Snow 32 0 28 -2.2 85 85 N 14 22 30.3 1026 3 4.828032 0.001 0.001
5:53 am 05:53 Cloudy with Haze 31 -0.6 26 -3.3 82 82 NNW 14 22 30.33 1027 6 9.656064 0.001 0.001
6:16 am 06:16 Cloudy 31 -0.6 26 -3.3 82 82 N 13 20 30.36 1028 7 11.265408 0 0
6:53 am 06:53 Cloudy with Haze 31 -0.6 26 -3.3 82 82 N 13 20 30.33 1027 6 9.656064 0 0
7:53 am 07:53 Cloudy 31 -0.6 24 -4.4 76 76 N 17 28 30.36 1028 8 12.874752 0 0
8:53 am 08:53 Cloudy 31 -0.6 25 -3.9 79 79 NNW 9 15 30.42 1030 7 11.265408 0 0
9:53 am 09:53 Cloudy 30 -1.1 23 -5 75 75 NNW 13 20 30.42 1030 9 14.484096 0 0
10:53 am 10:53 Cloudy 31 -0.6 23 -5 72 72 N 13 20 30.42 1030 10 16.09344 0 0
11:53 am 11:53 Cloudy 30 -1.1 22 -5.6 72 72 NNW 13 20 30.42 1030 10 16.09344 0 0
12:53 pm 12:53 Cloudy 30 -1.1 22 -5.6 72 72 NNW 15 24 30.42 1030 10 16.09344 0 0
1:53 pm 13:53 Mostly Cloudy 30 -1.1 21 -6.1 69 69 N 13 20 30.42 1030 10 16.09344 0 0
2:53 pm 14:53 Mostly Cloudy 30 -1.1 21 -6.1 69 69 N 12 19 30.42 1030 10 16.09344 0 0
3:11 pm 15:11 Partly Cloudy 30 -1.1 20 -6.7 66 66 N 12 19 30.48 1032 10 16.09344 0 0
3:53 pm 15:53 Mostly Sunny 30 -1.1 20 -6.7 66 66 NNE 10 17 30.45 1031 10 16.09344 0 0
4:53 pm 16:53 Clear 28 -2.2 19 -7.2 69 69 N 10 17 30.45 1031 10 16.09344 0 0
5:53 pm 17:53 Clear 27 -2.8 18 -7.8 69 69 N 14 22 30.45 1031 10 16.09344 0 0
6:53 pm 18:53 Clear 26 -3.3 18 -7.8 71 71 N 8 13 30.48 1032 10 16.09344 0 0
7:53 pm 19:53 Clear 26 -3.3 17 -8.3 69 69 N 6 9 30.48 1032 10 16.09344 0 0
8:53 pm 20:53 Clear 25 -3.9 18 -7.8 75 75 N 8 13 30.5 1033 10 16.09344 0 0
9:53 pm 21:53 Clear 25 -3.9 18 -7.8 75 75 NNE 9 15 30.5 1033 10 16.09344 0 0
10:53 pm 22:53 Clear 25 -3.9 17 -8.3 72 72 NNE 8 13 30.5 1033 10 16.09344 0 0
11:53 pm 23:53 Clear 24 -4.4 17 -8.3 75 75 NNE 10 17 30.5 1033 10 16.09344 0 0

Powered by AerisWeather

Site Deisgn Provided by Innovations Branding House, Paducah, KY